AirNav   Air Wisconsin pilot careers
 
 443 users online  

73OH Thompson Drag Raceway Airport
Thompson, Ohio, USA

GOING TO THOMPSON?


FAA INFORMATION EFFECTIVE 07 DECEMBER 2017

Location

FAA Identifier: 73OH
Lat/Long: 41-38-49.1960N / 081-00-31.3420W
41-38.819933N / 081-00.522367W
41.6469989 / -81.0087061
(estimated)
Elevation: 1100 ft. / 335 m (estimated)
Variation: 07W (1985)
From city: 3 miles SE of THOMPSON, OH
Time zone: UTC -5 (UTC -4 during Daylight Saving Time)
Zip code: 44086

Airport Operations

Airport use: Private use. Permission required prior to landing
Activation date: 02/1972
Control tower: no
ARTCC: CLEVELAND CENTER
FSS: CLEVELAND FLIGHT SERVICE STATION
Attendance: UNATNDD
Wind indicator: no
Segmented circle: no

Airport Communications

WX ASOS at HZY (16 nm NE): 118.325 (440-576-6907)
WX AWOS-3PT at LNN (17 nm W): 119.225 (440-942-0809)

Nearby radio navigation aids

VOR radial/distance  VOR name  Freq  Var
CXRr047/10.4CHARDON VOR/DME112.7005W
JFNr245/13.5JEFFERSON VOR/DME115.2005W
YNGr327/24.2YOUNGSTOWN VORTAC109.0005W
ACOr019/33.5AKRON VOR/DME114.4004W
ERIr241/39.0ERIE VORTAC109.4006W

 
NDB name  Hdg/Dist  Freq  Var  ID
LAKELAND105/16.726308WLQL .-.. --.- .-..

Airport Services

Airframe service: NONE
Powerplant service: NONE

Runway Information

Runway 9/27

Dimensions: 4000 x 60 ft. / 1219 x 18 m
Surface: asphalt
RUNWAY 9  RUNWAY 27
Traffic pattern: leftleft
Obstructions: plinenone

Airport Ownership and Management from official FAA records

Ownership: Privately-owned
Manager: GEORGE EISENHART
8233 SIDLEY RD
THOMPSON, OH 44086
Phone 216-298-3095
OR 216-631-6282

Airport Operational Statistics

Aircraft based on the field: 1
Single engine airplanes: 1
    

Instrument Procedures

There are no published instrument procedures at 73OH.

Some nearby airports with instrument procedures:

2G1 - Concord Airpark (9 nm W)
7G8 - Geauga County Airport (12 nm S)
KHZY - Northeast Ohio Regional Airport (16 nm NE)
KLNN - Willoughby Lost Nation Municipal Airport (17 nm W)
KCGF - Cuyahoga County Airport (22 nm W)
 
Loc | Ops | Rwys | IFR | FBO | Links
Com | Nav | Svcs | Stats | Notes


 
Area around 73OH (Thompson Drag Raceway Airport)
 
Road maps at: MapQuest Bing Google
 
Aerial photo
No photo
 
Sectional chart

 
Airport distance calculator
Flying to Thompson Drag Raceway Airport? Find the distance to fly.

From to 73OH

Sunrise and sunset
Times for 13-Dec-2017
 Local
(UTC-5)
 Zulu
(UTC)
Morning civil twilight07:1212:12
Sunrise07:4312:43
Sunset16:5321:53
Evening civil twilight17:2422:24

Current date and time
Zulu (UTC)  13-Dec-2017 07:23:22
Local (UTC-5)  13-Dec-2017 02:23:22
 
METAR
KHZY 
16nm NE 
130701Z AUTO 30015G23KT 10SM BKN027 BKN032 OVC055 M08/M13 A2976 RMK AO2 T10831133
KLNN 
16nm W 
130655Z AUTO 31014G26KT 10SM OVC031 M07/M13 A2981 RMK AO1 T10721127
KCGF 
21nm W 
130345Z 28020KT 7SM OVC015 M07/M14 A2982
KYNG 
28nm SE 
130651Z 29009KT 4SM -SN FEW023 OVC034 M09/M13 A2974 RMK AO2 SLP091 DRSN P0000 T10941128
KPOV 
28nm SW 
130655Z AUTO 28012G16KT 7SM -SN SCT019 BKN026 OVC044 M09/M15 A2978 RMK AO2 T10931147
KBKL 
30nm W 
130653Z 30022G32KT 10SM OVC040 M06/M13 A2982 RMK AO2 PK WND 29034/0611 SLP106 T10611133 $
TAF
NOTAMs
Click for the latest NOTAMs
NOTAMs are issued by the DoD/FAA and will open in a separate window not controlled by AirNav.

 

 
 

Would you like to see your business listed on this page?

 If your business provides an interesting product or service to pilots, flight crews, aircraft, or users of the Thompson Drag Raceway Airport, you should consider listing it here.  To start the listing process, click on the button below
 
Add a business
 

Other Pages about Thompson Drag Raceway Airport

Update a link
 
Copyright © AirNav, LLC. All rights reserved. Privacy Policy  Contact